CZ-3C DEB, 48550

Orbit data source: Space-Track

CZ-3C DEB, 48550 is space debris in HEO originally from a launch on Fri, 24 Feb 2012 UTC launched from the Xichang Space Center, China (XSC). Debris objects in space refer to the collection of defunct objects orbiting the Earth. Examples of debris include non-operational satellites, rocket bodies, and fragments generated from explosions, collisions, or faulty payload assembly.

Loading next visibility...
Identifier
48550, 2012-008AV
Orbit
HEO
Country
Flag of CNCN / PRC
Related business
Manufacturer
CALT
Mission
Spacecraft
Bus & Motor
Unknown
Mass
Unknown
Launch date (UTC)
2012-02-24 (14 years ago)
Launch vehicle
Unknown
Launch site
Xichang Space Center, China (XSC)
Object type
Payload
Rocket body
Debris
Shape & HBR
Unknown shape, 0.2 m
Radar Cross Section
Medium (>0.1 m² and <1 m²)

Expand to show TLE details & history
Last TLE update: 1 day ago

TLE from 1 day ago
0 CZ-3C DEB
1 48550U 12008AV  26119.48367973 -.00000009  00000-0  00000-0 0  9999
2 48550  19.8128 192.9993 6994114 259.7050  21.3205  2.24689593 88723
Epoch: 2026-04-29T11:36Z
TLE epoch observation values (Epoch: 2026-04-29T11:36:29.928Z)
Latitude
0.00003°
Longitude
161.57765°
Altitude
8,059.447 km
Speed
6.247 km/s
True Right ascension
12h 52m 35s
True Declination
0° 00' 00"
Sunlit
Object was in daylight at epoch
Visualization orbit readout
Latitude
Unknown
Longitude
Unknown
Altitude
Unknown
Speed
Unknown
Apparent Right ascension
Unknown
Apparent Declination
Unknown
Sunlit
N/A
Visualization observer readout
Local Sidereal Time
20:12:12
Azimuth
Unknown
Elevation
Unknown
Doppler factor
Unknown
Orbital elements
Apogee altitude
35,473.924 km
Perigee altitude
1,024.575 km
Semi-major axis
24,627.386 km
Eccentricity
0.69941
Inclination
19.8128°
RAAN
192.9993°
Arg. of periapsis
259.705°
True anomaly
100.38782°
Mean anomaly
21.3205°
Eccentric anomaly
53.5577°
Mean motion
0.56159 °/min
Orbital period
641.04 mins
BSTAR
0
Loading maneuver chart data...
Computing Atmospheric mass density...
Loading historical data...
Loading historical data...
Loading historical data...
Loading historical data...
Loading historical data...
Loading historical data...
Loading historical data...

Documentation

Showing up to 5 results
|